National City (44) Station Data

Red Flag Warning: No
Fire Weather Zone: 243
SDGE Region: Metro
Lat/Lon: 32.654/-117.097

Observations

Time Wind Speed/Gust Temp(F) RH Fuel Moist Fuel Temp(F) Dewpt(F) Tmax(F) Tmin(F) Accum Precip 10-min Precip SL Press(mb)
6/27 5:00pm 268 8 G 13 72° 69% - - 61° 75.9° 62.3° - - -
6/27 4:50pm 262 9 G 11 72° 66% - - 60° 75.9° 62.3° - - -
6/27 4:40pm 256 8 G 12 72° 67% - - 61° 75.9° 62.3° - - -
6/27 4:30pm 258 7 G 10 73° 66% - - 61° 75.9° 62.3° - - -
6/27 4:20pm 254 6 G 11 73° 67% - - 62° 75.9° 62.3° - - -
6/27 4:10pm 252 6 G 10 73° 68% - - 62° 75.9° 62.3° - - -
6/27 4:00pm 227 7 G 11 72° 71% - - 62° 75.9° 62.3° - - -
6/27 3:50pm 224 7 G 11 72° 71% - - 62° 75.9° 62.3° - - -
6/27 3:40pm 245 6 G 11 74° 67% - - 63° 75.9° 62.3° - - -
6/27 3:30pm 273 6 G 10 73° 67% - - 62° 74.7° 62.3° - - -
6/27 3:20pm 265 7 G 11 73° 69% - - 63° 74.7° 62.3° - - -
6/27 3:10pm 263 6 G 9 74° 69% - - 63° 74.7° 62.3° - - -
6/27 3:00pm 260 7 G 11 73° 71% - - 63° 74.2° 62.3° - - -
6/27 2:50pm 259 7 G 12 73° 72% - - 64° 74.2° 62.3° - - -
6/27 2:40pm 244 7 G 12 73° 72% - - 64° 73.9° 62.3° - - -
6/27 2:30pm 258 9 G 14 73° 71% - - 63° 73.5° 62.3° - - -
6/27 2:20pm 244 8 G 14 72° 75% - - 64° 73.3° 62.3° - - -
6/27 2:10pm 234 8 G 14 72° 77% - - 64° 73.3° 62.3° - - -
6/27 2:00pm 248 9 G 14 72° 76% - - 64° 73.3° 62.3° - - -
6/27 1:50pm 243 7 G 13 72° 76% - - 64° 73.3° 62.3° - - -
6/27 1:40pm 233 8 G 12 72° 76% - - 64° 73.1° 62.3° - - -
6/27 1:30pm 229 8 G 14 72° 77% - - 64° 73.1° 62.3° - - -
6/27 1:20pm 237 8 G 14 71° 78% - - 64° 73.1° 62.3° - - -
6/27 1:10pm 247 9 G 13 71° 77% - - 64° 73.1° 62.3° - - -
6/27 1:00pm 229 7 G 11 71° 78% - - 64° 73.1° 62.3° - - -
6/27 12:50pm 231 7 G 11 71° 77% - - 64° 73.1° 62.3° - - -
6/27 12:40pm 231 8 G 13 71° 78% - - 64° 73.1° 62.3° - - -
6/27 12:30pm 241 8 G 15 71° 78% - - 64° 73.1° 62.3° - - -
6/27 12:20pm 254 10 G 15 71° 78% - - 64° 73.1° 62.3° - - -
6/27 12:10pm 245 7 G 13 72° 76% - - 64° 73.1° 62.3° - - -
6/27 12:00pm 252 8 G 12 72° 77% - - 64° 73.1° 62.3° - - -
6/27 11:50am 246 8 G 12 71° 78% - - 64° 73.1° 62.3° - - -
6/27 11:40am 253 7 G 11 71° 78% - - 64° 73.1° 62.3° - - -
6/27 11:30am 229 7 G 10 71° 79% - - 64° 73.1° 62.3° - - -
6/27 11:20am 251 7 G 11 71° 79% - - 64° 73.1° 62.3° - - -
6/27 11:10am 242 7 G 11 71° 80% - - 64° 73.1° 62.3° - - -
6/27 11:00am 254 7 G 11 71° 77% - - 64° 73.1° 62.3° - - -
6/27 10:50am 263 6 G 9 71° 76% - - 64° 73.1° 62.3° - - -
6/27 10:40am 235 6 G 10 72° 76% - - 64° 73.1° 62.3° - - -
6/27 10:30am 236 6 G 9 71° 77% - - 64° 73.1° 62.3° - - -
6/27 10:20am 240 6 G 10 72° 75% - - 64° 73.1° 62.3° - - -
6/27 10:10am 244 4 G 7 72° 75% - - 64° 73.1° 62.3° - - -
6/27 10:00am 226 5 G 8 72° 74% - - 63° 73.1° 62.3° - - -
6/27 9:50am 227 5 G 8 72° 73% - - 63° 73.1° 62.3° - - -
6/27 9:40am 245 5 G 9 72° 72% - - 63° 73.1° 62.3° - - -
6/27 9:30am 229 5 G 10 72° 75% - - 64° 73.1° 62.3° - - -
6/27 9:20am 226 6 G 9 72° 78% - - 64° 73.1° 62.3° - - -
6/27 9:10am 239 4 G 7 72° 79% - - 65° 73.1° 62.3° - - -
6/27 9:00am 230 4 G 7 72° 78% - - 65° 73.1° 62.3° - - -
6/27 8:40am 229 3 G 7 72° 77% - - 65° 73.1° 62.3° - - -
6/27 8:30am 222 2 G 5 72° 74% - - 64° 73.1° 62.3° - - -
6/27 8:20am 260 2 G 4 72° 73% - - 63° 72.6° 62.3° - - -
6/27 8:10am 355 1 G 3 71° 75% - - 63° 72° 62.3° - - -
6/27 8:00am 282 1 G 3 70° 77% - - 63° 70.6° 62.3° - - -
6/27 7:50am 317 1 G 3 69° 79% - - 63° 70.1° 62.3° - - -
6/27 7:40am 315 1 G 3 69° 78% - - 62° 69.9° 62.3° - - -
6/27 7:30am 135 1 G 3 69° 77% - - 62° 69.8° 62.3° - - -
6/27 7:20am 96 1 G 3 68° 79% - - 61° 69.8° 62.3° - - -
6/27 7:10am 66 1 G 3 67° 80% - - 60° 69.8° 62.3° - - -
6/27 7:00am 64 2 G 3 66° 81% - - 60° 69.8° 62.3° - - -
6/27 6:50am 51 2 G 3 65° 83% - - 60° 69.8° 62.3° - - -
6/27 6:40am 77 3 G 4 65° 84% - - 60° 69.8° 62.3° - - -
6/27 6:30am 72 2 G 4 64° 85% - - 60° 69.8° 62.3° - - -
6/27 6:20am 69 1 G 3 63° 86% - - 59° 69.8° 62.3° - - -
6/27 6:10am 44 2 G 2 63° 87% - - 59° 69.8° 62.3° - - -
6/27 6:00am 53 2 G 3 63° 87% - - 59° 69.8° 62.3° - - -
6/27 5:50am 52 2 G 2 63° 88% - - 59° 69.8° 62.3° - - -
6/27 5:40am 52 2 G 2 63° 88% - - 59° 69.8° 62.3° - - -
6/27 5:30am 65 1 G 2 63° 88% - - 59° 69.8° 62.5° - - -
6/27 5:20am 69 2 G 4 63° 88% - - 59° 69.8° 62.5° - - -
6/27 5:10am 81 2 G 4 63° 87% - - 59° 69.8° 62.9° - - -
6/27 5:00am 79 3 G 4 64° 87% - - 60° 69.8° 63° - - -
6/27 4:50am 83 3 G 4 63° 87% - - 59° 69.8° 63° - - -
6/27 4:40am 65 3 G 4 64° 86% - - 59° 69.8° 63.2° - - -
6/27 4:30am 63 2 G 3 64° 87% - - 60° 69.8° 63.4° - - -
6/27 4:20am 71 2 G 2 64° 88% - - 60° 69.8° 63.4° - - -
6/27 4:10am 73 0 G 2 64° 88% - - 61° 69.8° 63.7° - - -
6/27 4:00am 4 0 G 1 64° 88% - - 60° 69.8° 63.7° - - -
6/27 3:50am 48 1 G 1 64° 87% - - 60° 69.8° 63.8° - - -
6/27 3:40am 59 1 G 2 65° 87% - - 61° 69.8° 63.9° - - -
6/27 3:30am 69 2 G 2 65° 87% - - 61° 69.8° 64.3° - - -
6/27 3:20am 67 1 G 2 65° 87% - - 61° 69.8° 64.5° - - -
6/27 3:10am 75 1 G 2 65° 87% - - 61° 69.8° 64.8° - - -
6/27 3:00am 67 2 G 2 65° 86% - - 61° 69.8° 64.8° - - -
6/27 2:50am 71 2 G 3 65° 86% - - 61° 69.8° 64.8° - - -
6/27 2:40am 61 2 G 2 65° 86% - - 61° 69.8° 65° - - -
6/27 2:30am 69 3 G 3 66° 87% - - 62° 69.8° 65.3° - - -
6/27 2:20am 78 2 G 4 66° 88% - - 62° 69.8° 65.3° - - -
6/27 2:10am 60 2 G 3 66° 90% - - 63° 69.8° 65.5° - - -
6/27 2:00am 46 2 G 2 66° 90% - - 63° 69.8° 66° - - -
6/27 1:50am 52 1 G 2 67° 90% - - 64° 69.8° 66.4° - - -
6/27 1:40am 128 2 G 2 67° 91% - - 64° 69.8° 66.8° - - -
6/27 1:30am 94 1 G 1 67° 91% - - 64° 69.8° 66.8° - - -
6/27 1:20am 203 0 G 1 67° 90% - - 64° 69.8° 67° - - -
6/27 1:10am 253 1 G 2 67° 90% - - 64° 69.8° 67.1° - - -
6/27 1:00am 271 2 G 3 68° 90% - - 65° 69.8° 67.2° - - -
6/27 12:50am 244 2 G 4 69° 89% - - 65° 69.8° 68° - - -
6/27 12:40am 232 1 G 4 69° 86% - - 65° 69.8° 68° - - -
6/27 12:30am 169 0 G 1 69° 84% - - 64° 69.4° 68.3° - - -
6/27 12:20am 126 0 G 1 69° 84% - - 63° 69.4° 68.3° - - -
6/27 12:10am 46 1 G 1 69° 83% - - 64° 69.4° 68.4° - - -
6/27 12:00am 22 0 G 1 69° 84% - - 64° 74.7° 63.2° - - -
6/26 11:50pm 0 0 G 1 69° 83% - - 64° 74.7° 63.2° - - -
6/26 11:40pm 296 0 G 1 69° 82% - - 64° 74.7° 63.2° - - -
6/26 11:30pm 75 1 G 2 70° 82% - - 64° 74.7° 63.2° - - -
6/26 11:20pm 107 2 G 3 69° 84% - - 64° 74.7° 63.2° - - -
6/26 11:10pm 81 2 G 3 69° 86% - - 65° 74.7° 63.2° - - -
6/26 11:00pm 76 0 G 1 69° 87% - - 65° 74.7° 63.2° - - -
6/26 10:50pm 148 0 G 1 69° 87% - - 65° 74.7° 63.2° - - -
6/26 10:40pm 86 0 G 1 69° 88% - - 65° 74.7° 63.2° - - -
6/26 10:30pm 0 0 G 0 69° 88% - - 65° 74.7° 63.2° - - -
6/26 10:20pm 0 0 G 0 69° 87% - - 65° 74.7° 63.2° - - -
6/26 10:10pm 217 1 G 2 69° 87% - - 65° 74.7° 63.2° - - -
6/26 10:00pm 227 1 G 3 69° 86% - - 65° 74.7° 63.2° - - -
6/26 9:50pm 240 1 G 2 69° 86% - - 65° 74.7° 63.2° - - -
6/26 9:40pm 268 1 G 2 69° 86% - - 65° 74.7° 63.2° - - -
6/26 9:30pm 273 2 G 3 69° 85% - - 65° 74.7° 63.2° - - -
6/26 9:20pm 247 2 G 3 69° 85% - - 65° 74.7° 63.2° - - -
6/26 9:10pm 253 1 G 4 69° 85% - - 64° 74.7° 63.2° - - -
6/26 9:00pm 227 1 G 3 69° 85% - - 65° 74.7° 63.2° - - -
6/26 8:50pm 183 1 G 4 69° 86% - - 65° 74.7° 63.2° - - -
6/26 8:40pm 222 1 G 2 69° 87% - - 65° 74.7° 63.2° - - -
6/26 8:30pm 222 1 G 3 69° 87% - - 65° 74.7° 63.2° - - -
6/26 8:20pm 234 2 G 4 69° 87% - - 65° 74.7° 63.2° - - -
6/26 8:10pm 219 2 G 5 70° 86% - - 65° 74.7° 63.2° - - -
6/26 8:00pm 233 3 G 5 70° 86% - - 65° 74.7° 63.2° - - -
6/26 7:50pm 246 3 G 5 70° 85% - - 65° 74.7° 63.2° - - -
6/26 7:40pm 231 3 G 5 70° 85% - - 65° 74.7° 63.2° - - -
6/26 7:30pm 242 3 G 6 70° 84% - - 65° 74.7° 63.2° - - -
6/26 7:20pm 232 4 G 7 71° 83% - - 65° 74.7° 63.2° - - -
6/26 7:10pm 245 4 G 7 71° 82% - - 65° 74.7° 63.2° - - -
6/26 7:00pm 241 4 G 8 71° 81% - - 65° 74.7° 63.2° - - -
6/26 6:50pm 247 5 G 8 72° 79% - - 65° 74.7° 63.2° - - -
6/26 6:40pm 243 5 G 8 72° 79% - - 65° 74.7° 63.2° - - -
6/26 6:30pm 247 5 G 8 72° 78% - - 65° 74.7° 63.2° - - -
6/26 6:20pm 233 5 G 9 73° 76% - - 65° 74.7° 63.2° - - -
6/26 6:10pm 241 6 G 10 73° 77% - - 65° 74.7° 63.2° - - -
6/26 6:00pm 239 6 G 9 73° 76% - - 65° 74.7° 63.2° - - -
6/26 5:50pm 244 6 G 9 73° 75% - - 65° 74.7° 63.2° - - -
6/26 5:40pm 244 6 G 9 73° 75% - - 65° 74.7° 63.2° - - -
6/26 5:30pm 233 6 G 9 73° 75% - - 65° 74.7° 63.2° - - -
6/26 5:20pm 241 6 G 9 74° 74% - - 65° 74.7° 63.2° - - -
6/26 5:10pm 254 7 G 9 74° 73% - - 64° 74.7° 63.2° - - -
6/26 5:00pm 249 6 G 11 73° 74% - - 65° 74.7° 63.2° - - -
6/26 4:50pm 247 6 G 11 73° 75% - - 65° 74.7° 63.2° - - -
6/26 4:40pm 252 7 G 12 73° 75% - - 65° 74.7° 63.2° - - -
6/26 4:30pm 252 7 G 12 74° 73% - - 64° 74.7° 63.2° - - -
6/26 4:20pm 245 6 G 10 73° 73% - - 64° 74.5° 63.2° - - -
6/26 4:10pm 245 7 G 11 73° 75% - - 65° 74.5° 63.2° - - -
6/26 4:00pm 228 7 G 11 72° 77% - - 65° 74.5° 63.2° - - -
6/26 3:50pm 242 8 G 11 73° 75% - - 64° 74.5° 63.2° - - -
6/26 3:40pm 237 6 G 11 74° 73% - - 64° 74.5° 63.2° - - -
6/26 3:30pm 249 8 G 12 73° 72% - - 64° 74.1° 63.2° - - -
6/26 3:20pm 250 7 G 11 72° 75% - - 64° 73.5° 63.2° - - -
6/26 3:10pm 251 7 G 11 72° 75% - - 64° 73.5° 63.2° - - -
6/26 3:00pm 265 8 G 11 72° 76% - - 64° 73.5° 63.2° - - -
6/26 2:50pm 259 7 G 11 72° 77% - - 64° 73.5° 63.2° - - -
6/26 2:40pm 257 8 G 12 72° 76% - - 64° 73.5° 63.2° - - -
6/26 2:30pm 255 8 G 11 72° 76% - - 64° 73.5° 63.2° - - -
6/26 2:20pm 252 7 G 10 72° 75% - - 64° 73.5° 63.2° - - -
6/26 2:10pm 238 6 G 9 72° 75% - - 64° 73.5° 63.2° - - -
6/26 2:00pm 221 6 G 9 72° 76% - - 64° 73.5° 63.2° - - -
6/26 1:50pm 221 6 G 9 72° 75% - - 64° 73.5° 63.2° - - -
6/26 1:40pm 220 7 G 10 72° 76% - - 64° 73.5° 63.2° - - -
6/26 1:30pm 233 5 G 10 73° 74% - - 64° 73.5° 63.2° - - -
6/26 1:20pm 253 5 G 9 72° 75% - - 63° 72.5° 63.2° - - -
6/26 1:10pm 232 6 G 9 71° 77% - - 63° 72.2° 63.2° - - -
6/26 1:00pm 254 5 G 9 71° 78% - - 63° 72.1° 63.2° - - -
6/26 12:50pm 272 6 G 10 70° 78% - - 63° 72.1° 63.2° - - -
6/26 12:40pm 261 5 G 9 71° 78% - - 63° 72.1° 63.2° - - -
6/26 12:30pm 258 5 G 8 70° 78% - - 63° 72.1° 63.2° - - -
6/26 12:20pm 267 6 G 9 70° 78% - - 63° 72.1° 63.2° - - -
6/26 12:10pm 255 6 G 10 70° 79% - - 63° 72.1° 63.2° - - -
6/26 12:00pm 223 6 G 10 69° 80% - - 63° 72.1° 63.2° - - -
6/26 11:50am 251 6 G 10 70° 80% - - 63° 72.1° 63.2° - - -
6/26 11:40am 238 6 G 9 69° 80% - - 63° 72.1° 63.2° - - -
6/26 11:30am 233 5 G 11 69° 81% - - 63° 72.1° 63.2° - - -
6/26 11:20am 248 6 G 9 69° 81% - - 63° 72.1° 63.2° - - -
6/26 11:10am 227 5 G 9 68° 83% - - 63° 72.1° 63.2° - - -
6/26 11:00am 232 6 G 10 68° 82% - - 62° 72.1° 63.2° - - -
6/26 10:50am 239 7 G 10 68° 81% - - 62° 72.1° 63.2° - - -
6/26 10:40am 234 6 G 11 69° 80% - - 62° 72.1° 63.2° - - -
6/26 10:30am 245 6 G 11 68° 82% - - 62° 72.1° 63.2° - - -
6/26 10:20am 237 6 G 10 66° 85% - - 62° 72.1° 63.2° - - -
6/26 10:10am 225 6 G 10 66° 86% - - 62° 72.1° 63.2° - - -
6/26 10:00am 228 5 G 9 66° 86% - - 62° 72.1° 63.2° - - -
6/26 9:50am 234 5 G 9 66° 88% - - 62° 72.1° 63.2° - - -
6/26 9:40am 239 6 G 10 66° 86% - - 62° 72.1° 63.2° - - -
6/26 9:30am 226 6 G 10 66° 87% - - 62° 72.1° 63.2° - - -
6/26 9:20am 234 7 G 12 67° 86% - - 62° 72.1° 63.2° - - -
6/26 9:10am 229 6 G 11 67° 86% - - 62° 72.1° 63.2° - - -
6/26 9:00am 226 7 G 10 68° 81% - - 62° 72.1° 63.2° - - -
6/26 8:50am 214 5 G 11 71° 77% - - 63° 72.1° 63.2° - - -
6/26 8:40am 223 4 G 8 71° 78% - - 64° 72.1° 63.2° - - -
6/26 8:30am 238 3 G 5 71° 78% - - 64° 71.9° 63.2° - - -
6/26 8:20am 216 2 G 5 71° 79% - - 64° 71.6° 63.2° - - -
6/26 8:10am 206 2 G 5 71° 78% - - 64° 71.4° 63.2° - - -
6/26 8:00am 238 1 G 4 71° 79% - - 64° 71.1° 63.2° - - -
6/26 7:50am 230 2 G 4 70° 78% - - 63° 70.8° 63.2° - - -
6/26 7:40am 256 2 G 4 70° 78% - - 63° 70.5° 63.2° - - -
6/26 7:30am 244 1 G 4 69° 79% - - 62° 69.6° 63.2° - - -
6/26 7:20am 281 1 G 2 69° 78% - - 62° 69.3° 63.2° - - -
6/26 7:10am 71 1 G 2 68° 80% - - 62° 68.7° 63.2° - - -
6/26 7:00am 49 2 G 2 67° 82% - - 61° 67.4° 63.2° - - -
6/26 6:50am 76 2 G 4 66° 83% - - 61° 66.9° 63.2° - - -
6/26 6:40am 86 3 G 5 66° 83% - - 61° 66.9° 63.2° - - -
6/26 6:30am 102 2 G 3 65° 84% - - 61° 66.9° 63.2° - - -
6/26 6:20am 57 0 G 1 65° 86% - - 60° 66.9° 63.2° - - -
6/26 6:10am 0 0 G 0 64° 87% - - 60° 66.9° 63.2° - - -
6/26 6:00am 16 1 G 2 64° 87% - - 60° 66.9° 63.2° - - -